Change the Weather History Date:

Thursday, October 27, 2011

  Actual Average Record
Temperature  
Mean Temperature 42 °F -  
Max Temperature 57 °F 63 °F 91 °F (1999)
Min Temperature 28 °F 40 °F 17 °F (1997)
Degree Days  
Heating Degree Days 22    
Moisture  
Dew Point 25 °F    
Average Humidity 52    
Maximum Humidity 86    
Minimum Humidity 12    
Precipitation  
Precipitation 0.00 in - - ()
Sea Level Pressure  
Sea Level Pressure 30.14 in    
Wind  
Wind Speed 4 mph (NW)    
Max Wind Speed 12 mph    
Max Gust Speed -    
Visibility 10 miles    
Events      
Averages and records for this station are not official NWS values.
T = Trace of Precipitation, MM = Missing Value Source: NWS Daily Summary

Daily Weather History Graph

Daily Weather History Graph

Search for Another Location

Airport or City:

Trip Planner

Search our weather history database for the weather conditions in past years. The results will help you decide how hot, cold, wet, or windy it might be!

Date:

Astronomy

Oct. 27, 2011 Rise Set
Actual Time 7:45 AM CDT 6:24 PM CDT
Civil Twilight 7:17 AM CDT 6:52 PM CDT
Nautical Twilight 6:45 AM CDT 7:24 PM CDT
Astronomical Twilight 6:13 AM CDT 7:56 PM CDT
Moon 8:51 AM CDT (10/27) 6:53 PM CDT (10/27)
Length of Visible Light 11h 34m
Length of Day
10h 38m
New Moon, 1% of the Moon is Illuminated
Oct 27
New Moon
Nov 2
First Quarter
Nov 10
Full
Nov 18
Last Quarter
Nov 25
New

Hourly Weather History & Observations

Time (CDT) Temp. Windchill Dew Point Humidity Pressure Visibility Wind Dir Wind Speed Gust Speed Precip Events Conditions
12:15 AM 46.4 °F 43.5 °F 33.8 °F 62% 30.11 in 10.0 mi NW 5.8 mph - N/A   Scattered Clouds
12:35 AM 44.6 °F 42.2 °F 33.8 °F 66% 30.11 in 10.0 mi NW 4.6 mph - N/A   Scattered Clouds
12:55 AM 44.6 °F 42.2 °F 33.8 °F 66% 30.12 in 10.0 mi NW 4.6 mph - N/A   Scattered Clouds
1:15 AM 44.6 °F 42.2 °F 33.8 °F 66% 30.11 in 10.0 mi NW 4.6 mph - N/A   Scattered Clouds
1:35 AM 44.6 °F 42.2 °F 33.8 °F 66% 30.11 in 10.0 mi NNW 4.6 mph - N/A   Scattered Clouds
1:55 AM 44.6 °F 42.2 °F 33.8 °F 66% 30.12 in 10.0 mi NNW 4.6 mph - N/A   Mostly Cloudy
2:15 AM 44.6 °F 40.2 °F 33.8 °F 66% 30.12 in 10.0 mi NNW 8.1 mph - N/A   Mostly Cloudy
2:35 AM 44.6 °F 40.7 °F 33.8 °F 66% 30.12 in 10.0 mi NNW 6.9 mph - N/A   Overcast
3:15 AM 44.6 °F 40.7 °F 33.8 °F 66% 30.12 in 10.0 mi NNW 6.9 mph - N/A   Mostly Cloudy
3:35 AM 44.6 °F 40.7 °F 33.8 °F 66% 30.12 in 10.0 mi North 6.9 mph - N/A   Overcast
3:55 AM 44.6 °F 42.2 °F 33.8 °F 66% 30.12 in 10.0 mi North 4.6 mph - N/A   Overcast
4:15 AM 42.8 °F 41.1 °F 32.0 °F 66% 30.12 in 10.0 mi North 3.5 mph - N/A   Overcast
4:35 AM 39.2 °F 37.0 °F 30.2 °F 70% 30.12 in 10.0 mi NNE 3.5 mph - N/A   Mostly Cloudy
4:55 AM 39.2 °F - 30.2 °F 70% 30.13 in 10.0 mi Calm Calm - N/A   Scattered Clouds
5:15 AM 39.2 °F - 30.2 °F 70% 30.13 in 10.0 mi Calm Calm - N/A   Scattered Clouds
5:35 AM 37.4 °F 34.9 °F 30.2 °F 75% 30.13 in 10.0 mi North 3.5 mph - N/A   Clear
5:55 AM 35.6 °F - 30.2 °F 81% 30.13 in 10.0 mi Calm Calm - N/A   Mostly Cloudy
6:15 AM 35.6 °F - 30.2 °F 81% 30.14 in 10.0 mi Calm Calm - N/A   Scattered Clouds
6:35 AM 35.6 °F - 28.4 °F 75% 30.14 in 10.0 mi Calm Calm - N/A   Clear
6:55 AM 35.6 °F - 30.2 °F 81% 30.13 in 10.0 mi Calm Calm - N/A   Scattered Clouds
7:15 AM 33.8 °F - 28.4 °F 81% 30.14 in 10.0 mi Calm Calm - N/A   Clear
7:35 AM 32.0 °F - 26.6 °F 80% 30.14 in 10.0 mi Calm Calm - N/A   Scattered Clouds
7:55 AM 30.2 °F - 24.8 °F 80% 30.15 in 10.0 mi Calm Calm - N/A   Clear
8:15 AM 28.4 °F - 24.8 °F 86% 30.15 in 10.0 mi Calm Calm - N/A   Clear
8:35 AM 30.2 °F - 24.8 °F 80% 30.15 in 10.0 mi Calm Calm - N/A   Clear
8:55 AM 33.8 °F - 28.4 °F 81% 30.16 in 10.0 mi Calm Calm - N/A   Clear
9:15 AM 37.4 °F - 30.2 °F 75% 30.16 in 10.0 mi Calm Calm - N/A   Clear
9:35 AM 39.2 °F 37.0 °F 32.0 °F 75% 30.17 in 10.0 mi WSW 3.5 mph - N/A   Clear
9:55 AM 42.8 °F 41.1 °F 33.8 °F 70% 30.17 in 10.0 mi West 3.5 mph - N/A   Clear
10:15 AM 44.6 °F 42.2 °F 33.8 °F 66% 30.18 in 10.0 mi West 4.6 mph - N/A   Clear
10:35 AM 46.4 °F 44.3 °F 32.0 °F 57% 30.18 in 10.0 mi WSW 4.6 mph - N/A   Clear
10:55 AM 48.2 °F - 33.8 °F 58% 30.18 in 10.0 mi WSW 5.8 mph - N/A   Clear
11:15 AM 50.0 °F - 32.0 °F 50% 30.18 in 10.0 mi West 4.6 mph - N/A   Clear
11:35 AM 51.8 °F - 30.2 °F 44% 30.18 in 10.0 mi SW 4.6 mph - N/A   Clear
11:55 AM 51.8 °F - 28.4 °F 41% 30.18 in 10.0 mi WSW 8.1 mph - N/A   Clear
12:15 PM 53.6 °F - 24.8 °F 33% 30.17 in 10.0 mi NW 4.6 mph - N/A   Clear
12:35 PM 53.6 °F - 21.2 °F 28% 30.17 in 10.0 mi West 10.4 mph - N/A   Clear
12:55 PM 53.6 °F - 19.4 °F 26% 30.17 in 10.0 mi West 6.9 mph - N/A   Scattered Clouds
1:15 PM 55.4 °F - 19.4 °F 25% 30.16 in 10.0 mi West 5.8 mph - N/A   Clear
1:35 PM 53.6 °F - 19.4 °F 26% 30.16 in 10.0 mi NNW 5.8 mph - N/A   Scattered Clouds
1:55 PM 51.8 °F - 17.6 °F 26% 30.16 in 10.0 mi WNW 6.9 mph - N/A   Scattered Clouds
2:15 PM 55.4 °F - 17.6 °F 23% 30.14 in 10.0 mi West 8.1 mph - N/A   Clear
2:35 PM 55.4 °F - 17.6 °F 23% 30.14 in 10.0 mi WNW 5.8 mph - N/A   Clear
2:55 PM 55.4 °F - 15.8 °F 21% 30.13 in 10.0 mi WNW 4.6 mph - N/A   Scattered Clouds
3:15 PM 57.2 °F - 12.2 °F 17% 30.13 in 10.0 mi West 8.1 mph - N/A   Scattered Clouds
3:35 PM 55.4 °F - 12.2 °F 18% 30.13 in 10.0 mi West 10.4 mph - N/A   Clear
3:55 PM 57.2 °F - 12.2 °F 17% 30.12 in 10.0 mi WNW 8.1 mph - N/A   Scattered Clouds
4:15 PM 57.2 °F - 5.0 °F 12% 30.12 in 10.0 mi NW 11.5 mph - N/A   Mostly Cloudy
4:35 PM 57.2 °F - 8.6 °F 14% 30.12 in 10.0 mi NNW 8.1 mph - N/A   Scattered Clouds
4:55 PM 55.4 °F - 12.2 °F 18% 30.12 in 10.0 mi NNW 10.4 mph - N/A   Clear
5:15 PM 55.4 °F - 15.8 °F 21% 30.11 in 10.0 mi NNW 5.8 mph - N/A   Clear
5:35 PM 53.6 °F - 15.8 °F 22% 30.12 in 10.0 mi NNW 3.5 mph - N/A   Clear
5:55 PM 51.8 °F - 15.8 °F 24% 30.12 in 10.0 mi Calm Calm - N/A   Clear
6:15 PM 51.8 °F - 15.8 °F 24% 30.13 in 10.0 mi Calm Calm - N/A   Clear
6:35 PM 50.0 °F - 17.6 °F 28% 30.13 in 10.0 mi Calm Calm - N/A   Clear
6:55 PM 46.4 °F - 19.4 °F 34% 30.13 in 10.0 mi Calm Calm - N/A   Scattered Clouds
7:15 PM 42.8 °F - 21.2 °F 42% 30.14 in 10.0 mi Calm Calm - N/A   Scattered Clouds
7:35 PM 39.2 °F - 21.2 °F 49% 30.15 in 10.0 mi Calm Calm - N/A   Scattered Clouds
8:15 PM 37.4 °F 34.9 °F 23.0 °F 56% 30.15 in 10.0 mi South 3.5 mph - N/A   Scattered Clouds
8:35 PM 37.4 °F - 23.0 °F 56% 30.15 in 10.0 mi Calm Calm - N/A   Clear
8:55 PM 37.4 °F - 24.8 °F 60% 30.16 in 10.0 mi Calm Calm - N/A   Scattered Clouds
9:15 PM 35.6 °F - 24.8 °F 65% 30.16 in 10.0 mi Calm Calm - N/A   Scattered Clouds
9:35 PM 35.6 °F - 23.0 °F 60% 30.17 in 10.0 mi Calm Calm - N/A   Scattered Clouds
9:55 PM 33.8 °F - 23.0 °F 65% 30.17 in 10.0 mi Calm Calm - N/A   Scattered Clouds
10:15 PM 33.8 °F - 23.0 °F 65% 30.17 in 10.0 mi Calm Calm - N/A   Clear
10:35 PM 33.8 °F - 23.0 °F 65% 30.17 in 10.0 mi Calm Calm - N/A   Scattered Clouds
10:55 PM 33.8 °F - 23.0 °F 65% 30.17 in 10.0 mi Calm Calm - N/A   Scattered Clouds
11:15 PM 33.8 °F - 23.0 °F 65% 30.17 in 10.0 mi Calm Calm - N/A   Scattered Clouds
11:55 PM 33.8 °F - 23.0 °F 65% 30.17 in 10.0 mi Calm Calm - N/A   Scattered Clouds